TYSON58 KPBI-TJSJ

Flight info

Callsign TYSON58
Flight time 2h 3m
Altitude 39000
Route MIXAE4 HALBI DCT ZFP DCT HAGIT Y290 BEANO BEANO3
Aircraft B38M/M-SDE1FGHILORVWXY/HB1

Departure

Time 2026-05-06 13:56
Airport Palm Beach International Airport (KPBI)

Arrival

Time 2026-05-06 15:59
Airport Luis Munoz Marin International Airport (TJSJ)
Time Latitude Longitude Altitude Speed Heading
2026-05-06 13:39 26.67902 -80.09339 24 ft 0 kts 94°
2026-05-06 13:49 26.67901 -80.09334 24 ft 2 kts 94°
2026-05-06 13:49 26.67900 -80.09308 24 ft 5 kts 93°
2026-05-06 13:50 26.67893 -80.09263 24 ft 7 kts 102°
2026-05-06 13:50 26.67887 -80.09201 24 ft 9 kts 73°
2026-05-06 13:50 26.67929 -80.09194 24 ft 6 kts 315°
2026-05-06 13:50 26.67966 -80.09236 27 ft 9 kts 315°
2026-05-06 13:51 26.68010 -80.09297 24 ft 11 kts 305°
2026-05-06 13:51 26.68058 -80.09375 24 ft 14 kts 305°
2026-05-06 13:51 26.68125 -80.09456 27 ft 13 kts 316°
2026-05-06 13:51 26.68155 -80.09534 25 ft 12 kts 273°
2026-05-06 13:52 26.68158 -80.09638 24 ft 15 kts 272°
2026-05-06 13:52 26.68164 -80.09753 28 ft 17 kts 272°
2026-05-06 13:52 26.68170 -80.09884 24 ft 16 kts 273°
2026-05-06 13:52 26.68176 -80.10017 24 ft 18 kts 273°
2026-05-06 13:53 26.68182 -80.10165 24 ft 20 kts 273°
2026-05-06 13:53 26.68189 -80.10325 24 ft 20 kts 273°
2026-05-06 13:53 26.68195 -80.10462 26 ft 14 kts 272°
2026-05-06 13:53 26.68199 -80.10572 24 ft 14 kts 272°
2026-05-06 13:54 26.68204 -80.10686 27 ft 16 kts 273°
2026-05-06 13:54 26.68209 -80.10796 25 ft 10 kts 282°
2026-05-06 13:54 26.68249 -80.10829 24 ft 7 kts
2026-05-06 13:54 26.68306 -80.10816 26 ft 7 kts 23°
2026-05-06 13:55 26.68319 -80.10786 26 ft 4 kts 88°
2026-05-06 13:55 26.68319 -80.10767 24 ft 0 kts 91°
2026-05-06 13:55 26.68317 -80.10731 24 ft 21 kts 93°
2026-05-06 13:55 26.68296 -80.10248 24 ft 106 kts 93°
2026-05-06 13:56 26.68248 -80.09125 67 ft 176 kts 93°
2026-05-06 13:56 26.68338 -80.07675 752 ft 197 kts 70°
2026-05-06 13:56 26.69068 -80.06394 2028 ft 196 kts 47°
2026-05-06 13:56 26.70082 -80.05264 3029 ft 217 kts 44°
2026-05-06 13:57 26.71197 -80.03997 3843 ft 242 kts 48°
2026-05-06 13:57 26.72192 -80.02370 4623 ft 256 kts 64°
2026-05-06 13:57 26.72773 -80.00480 5395 ft 262 kts 71°
2026-05-06 13:57 26.73624 -79.98621 6219 ft 274 kts 58°
2026-05-06 13:58 26.74255 -79.96589 6333 ft 278 kts 87°
2026-05-06 13:58 26.74006 -79.94908 6430 ft 278 kts 110°
2026-05-06 13:58 26.73564 -79.93681 6530 ft 282 kts 109°
2026-05-06 13:58 26.73100 -79.91548 6933 ft 282 kts 96°
2026-05-06 13:59 26.72850 -79.89371 7967 ft 284 kts 95°
2026-05-06 13:59 26.72587 -79.87159 8940 ft 290 kts 95°
2026-05-06 13:59 26.72319 -79.84939 9918 ft 294 kts 95°
2026-05-06 13:59 26.72036 -79.82629 10647 ft 307 kts 95°
2026-05-06 14:00 26.71735 -79.80187 11187 ft 324 kts 95°
2026-05-06 14:00 26.71420 -79.77637 11831 ft 336 kts 95°
2026-05-06 14:00 26.71098 -79.75028 12684 ft 340 kts 95°
2026-05-06 14:00 26.70771 -79.72382 13444 ft 347 kts 95°
2026-05-06 14:01 26.70441 -79.69719 14194 ft 352 kts 94°
2026-05-06 14:01 26.70104 -79.66993 14890 ft 357 kts 94°
2026-05-06 14:01 26.69760 -79.64228 15593 ft 361 kts 94°
2026-05-06 14:01 26.69412 -79.61428 16270 ft 365 kts 94°
2026-05-06 14:02 26.69060 -79.58602 16941 ft 370 kts 94°
2026-05-06 14:02 26.68702 -79.55736 17598 ft 374 kts 94°
2026-05-06 14:02 26.68340 -79.52838 18241 ft 378 kts 93°
2026-05-06 14:02 26.67974 -79.49908 18798 ft 382 kts 92°
2026-05-06 14:03 26.67908 -79.46954 19324 ft 380 kts 84°
2026-05-06 14:03 26.67932 -79.43975 19831 ft 386 kts 85°
2026-05-06 14:03 26.67929 -79.40962 20374 ft 389 kts 86°
2026-05-06 14:03 26.67911 -79.37957 20895 ft 393 kts 86°
2026-05-06 14:04 26.67884 -79.34889 21411 ft 396 kts 86°
2026-05-06 14:04 26.67853 -79.31782 21923 ft 400 kts 86°
2026-05-06 14:04 26.67821 -79.28662 22430 ft 404 kts 86°
2026-05-06 14:04 26.67787 -79.25510 22924 ft 407 kts 86°
2026-05-06 14:05 26.67753 -79.22328 23427 ft 411 kts 86°
2026-05-06 14:05 26.67718 -79.19125 23879 ft 414 kts 86°
2026-05-06 14:05 26.67622 -79.15877 24278 ft 421 kts 94°
2026-05-06 14:05 26.66850 -79.12702 24730 ft 428 kts 110°
2026-05-06 14:06 26.65603 -79.09650 25112 ft 433 kts 111°
2026-05-06 14:06 26.64327 -79.06578 25496 ft 437 kts 112°
2026-05-06 14:06 26.63026 -79.03498 25932 ft 440 kts 112°
2026-05-06 14:06 26.61703 -79.00401 26346 ft 443 kts 112°
2026-05-06 14:07 26.60366 -78.97285 26728 ft 446 kts 112°
2026-05-06 14:07 26.59018 -78.94153 27112 ft 449 kts 112°
2026-05-06 14:07 26.57675 -78.91031 27486 ft 453 kts 112°
2026-05-06 14:07 26.56305 -78.87852 27862 ft 456 kts 112°
2026-05-06 14:08 26.54925 -78.84653 28233 ft 459 kts 112°
2026-05-06 14:08 26.53534 -78.81428 28599 ft 462 kts 112°
2026-05-06 14:08 26.52125 -78.78187 28960 ft 466 kts 114°
2026-05-06 14:08 26.50409 -78.75087 29330 ft 471 kts 120°
2026-05-06 14:09 26.48603 -78.72014 29673 ft 474 kts 120°
2026-05-06 14:09 26.46783 -78.68917 30025 ft 478 kts 120°
2026-05-06 14:09 26.44952 -78.65808 30362 ft 480 kts 120°
2026-05-06 14:09 26.43115 -78.62692 30697 ft 481 kts 120°
2026-05-06 14:10 26.41292 -78.59602 30976 ft 484 kts 120°
2026-05-06 14:10 26.39435 -78.56457 31320 ft 485 kts 120°
2026-05-06 14:10 26.37574 -78.53308 31651 ft 487 kts 120°
2026-05-06 14:10 26.35704 -78.50146 31912 ft 490 kts 120°
2026-05-06 14:11 26.33822 -78.46966 32203 ft 492 kts 120°
2026-05-06 14:11 26.31928 -78.43768 32482 ft 495 kts 120°
2026-05-06 14:11 26.30028 -78.40560 32758 ft 498 kts 120°
2026-05-06 14:11 26.28108 -78.37324 33040 ft 500 kts 120°
2026-05-06 14:12 26.26186 -78.34083 33315 ft 503 kts 120°
2026-05-06 14:12 26.24253 -78.30829 33589 ft 505 kts 120°
2026-05-06 14:12 26.22304 -78.27549 33864 ft 508 kts 120°
2026-05-06 14:12 26.20350 -78.24264 34133 ft 510 kts 120°
2026-05-06 14:13 26.18382 -78.20957 34372 ft 512 kts 120°
2026-05-06 14:13 26.16416 -78.17656 34685 ft 512 kts 120°
2026-05-06 14:13 26.14448 -78.14354 34999 ft 512 kts 120°
2026-05-06 14:13 26.12506 -78.11098 35293 ft 511 kts 120°
2026-05-06 14:14 26.10540 -78.07805 35596 ft 511 kts 120°
2026-05-06 14:14 26.08578 -78.04519 35894 ft 511 kts 120°
2026-05-06 14:14 26.06608 -78.01222 36185 ft 510 kts 120°
2026-05-06 14:14 26.04644 -77.97940 36486 ft 509 kts 120°
2026-05-06 14:15 26.02684 -77.94664 36823 ft 508 kts 121°
2026-05-06 14:15 26.00730 -77.91403 37108 ft 507 kts 121°
2026-05-06 14:15 25.98777 -77.88143 37360 ft 507 kts 121°
2026-05-06 14:15 25.96824 -77.84888 37617 ft 506 kts 121°
2026-05-06 14:16 25.94872 -77.81635 37854 ft 506 kts 121°
2026-05-06 14:16 25.92915 -77.78377 38091 ft 506 kts 121°
2026-05-06 14:16 25.90964 -77.75131 38320 ft 505 kts 121°
2026-05-06 14:16 25.89011 -77.71885 38541 ft 505 kts 121°
2026-05-06 14:17 25.87061 -77.68645 38753 ft 504 kts 121°
2026-05-06 14:17 25.85109 -77.65404 38925 ft 504 kts 121°
2026-05-06 14:17 25.81204 -77.58928 39018 ft 505 kts 121°
2026-05-06 14:18 25.77323 -77.52500 39006 ft 505 kts 121°
2026-05-06 14:18 25.73409 -77.46027 39001 ft 505 kts 121°
2026-05-06 14:19 25.69494 -77.39560 38997 ft 504 kts 121°
2026-05-06 14:19 25.65578 -77.33102 38998 ft 503 kts 121°
2026-05-06 14:20 25.61699 -77.26712 39000 ft 503 kts 121°
2026-05-06 14:20 25.57781 -77.20268 39005 ft 503 kts 121°
2026-05-06 14:21 25.53855 -77.13821 39000 ft 504 kts 121°
2026-05-06 14:21 25.49953 -77.07420 38998 ft 504 kts 121°
2026-05-06 14:22 25.46024 -77.00985 38998 ft 504 kts 121°
2026-05-06 14:22 25.42099 -76.94565 39001 ft 504 kts 121°
2026-05-06 14:23 25.38163 -76.88134 39000 ft 504 kts 121°
2026-05-06 14:23 25.34233 -76.81722 39000 ft 503 kts 120°
2026-05-06 14:24 25.30970 -76.76407 38995 ft 502 kts 120°
2026-05-06 14:24 25.27045 -76.70019 39000 ft 503 kts 120°
2026-05-06 14:25 25.23107 -76.63620 38997 ft 502 kts 120°
2026-05-06 14:25 25.19176 -76.57239 39001 ft 502 kts 120°
2026-05-06 14:26 25.15236 -76.50853 38999 ft 503 kts 121°
2026-05-06 14:26 25.11320 -76.44515 39000 ft 503 kts 121°
2026-05-06 14:27 25.07375 -76.38138 39002 ft 503 kts 121°
2026-05-06 14:27 25.03421 -76.31756 39002 ft 503 kts 121°
2026-05-06 14:28 24.99491 -76.25419 38992 ft 503 kts 120°
2026-05-06 14:28 24.95546 -76.19068 39040 ft 501 kts 120°
2026-05-06 14:29 24.91598 -76.12720 39126 ft 503 kts 120°
2026-05-06 14:29 24.87626 -76.06342 39116 ft 506 kts 120°
2026-05-06 14:30 24.83632 -75.99937 39110 ft 513 kts 121°
2026-05-06 14:30 24.79579 -75.93448 39108 ft 514 kts 121°
2026-05-06 14:31 24.75526 -75.86965 39114 ft 514 kts 121°
2026-05-06 14:31 24.71467 -75.80481 39114 ft 514 kts 121°
2026-05-06 14:32 24.67411 -75.74012 39115 ft 515 kts 120°
2026-05-06 14:32 24.63340 -75.67527 39103 ft 515 kts 120°
2026-05-06 14:33 24.59303 -75.61105 39111 ft 513 kts 120°
2026-05-06 14:33 24.55239 -75.54649 39111 ft 513 kts 120°
2026-05-06 14:34 24.51176 -75.48202 39114 ft 514 kts 120°
2026-05-06 14:34 24.47105 -75.41753 39126 ft 514 kts 120°
2026-05-06 14:35 24.43020 -75.35288 39118 ft 515 kts 120°
2026-05-06 14:35 24.38938 -75.28838 39116 ft 515 kts 120°
2026-05-06 14:36 24.34850 -75.22385 39116 ft 515 kts 120°
2026-05-06 14:36 24.30788 -75.15984 39116 ft 515 kts 120°
2026-05-06 14:37 24.26691 -75.09534 39111 ft 515 kts 120°
2026-05-06 14:37 24.22599 -75.03100 39117 ft 514 kts 120°
2026-05-06 14:38 24.18510 -74.96680 39115 ft 514 kts 120°
2026-05-06 14:38 24.14433 -74.90289 39114 ft 514 kts 120°
2026-05-06 14:39 24.10332 -74.83867 39114 ft 514 kts 120°
2026-05-06 14:39 24.06226 -74.77444 39116 ft 514 kts 120°
2026-05-06 14:40 24.02116 -74.71026 39117 ft 514 kts 120°
2026-05-06 14:40 23.98006 -74.64614 39118 ft 514 kts 120°
2026-05-06 14:41 23.93894 -74.58208 39117 ft 514 kts 120°
2026-05-06 14:41 23.89779 -74.51805 39113 ft 514 kts 120°
2026-05-06 14:42 23.85690 -74.45451 39113 ft 514 kts 120°
2026-05-06 14:42 23.81571 -74.39059 39114 ft 514 kts 120°
2026-05-06 14:43 23.77445 -74.32663 39120 ft 515 kts 120°
2026-05-06 14:43 23.73309 -74.26261 39111 ft 515 kts 120°
2026-05-06 14:44 23.69179 -74.19877 39110 ft 515 kts 120°
2026-05-06 14:45 23.62999 -74.10337 39111 ft 515 kts 120°
2026-05-06 14:45 23.58858 -74.03954 39110 ft 515 kts 120°
2026-05-06 14:46 23.54716 -73.97579 39119 ft 515 kts 120°
2026-05-06 14:46 23.50606 -73.91261 39109 ft 514 kts 120°
2026-05-06 14:47 23.46470 -73.84911 39110 ft 514 kts 120°
2026-05-06 14:47 23.42322 -73.78549 39110 ft 514 kts 120°
2026-05-06 14:48 23.38178 -73.72203 39110 ft 514 kts 120°
2026-05-06 14:48 23.34032 -73.65861 39110 ft 514 kts 120°
2026-05-06 14:49 23.29902 -73.59552 39114 ft 515 kts 119°
2026-05-06 14:49 23.25749 -73.53215 39110 ft 515 kts 119°
2026-05-06 14:50 23.21588 -73.46872 39104 ft 515 kts 120°
2026-05-06 14:50 23.17422 -73.40532 39107 ft 515 kts 120°
2026-05-06 14:51 23.13288 -73.34247 39109 ft 514 kts 120°
2026-05-06 14:51 23.09122 -73.27920 39118 ft 514 kts 119°
2026-05-06 14:52 23.04953 -73.21600 39106 ft 515 kts 119°
2026-05-06 14:52 23.00776 -73.15272 39107 ft 515 kts 119°
2026-05-06 14:53 22.96598 -73.08952 39110 ft 515 kts 119°
2026-05-06 14:53 22.92433 -73.02659 39107 ft 515 kts 119°
2026-05-06 14:54 22.88253 -72.96350 39110 ft 515 kts 119°
2026-05-06 14:54 22.84068 -72.90042 39114 ft 515 kts 119°
2026-05-06 14:55 22.79900 -72.83767 39090 ft 515 kts 119°
2026-05-06 14:55 22.75715 -72.77474 39105 ft 514 kts 119°
2026-05-06 14:56 22.71526 -72.71183 39108 ft 514 kts 119°
2026-05-06 14:56 22.67342 -72.64907 39108 ft 514 kts 119°
2026-05-06 14:57 22.63155 -72.58632 39121 ft 514 kts 119°
2026-05-06 14:57 22.58987 -72.52395 39113 ft 514 kts 119°
2026-05-06 14:58 22.54785 -72.46115 39103 ft 514 kts 119°
2026-05-06 14:58 22.50592 -72.39854 39110 ft 514 kts 119°
2026-05-06 14:59 22.46390 -72.33588 39112 ft 514 kts 119°
2026-05-06 14:59 22.42191 -72.27334 39090 ft 514 kts 119°
2026-05-06 15:00 22.38023 -72.21133 39109 ft 512 kts 119°
2026-05-06 15:00 22.33836 -72.14911 39108 ft 512 kts 119°
2026-05-06 15:01 22.29639 -72.08681 39111 ft 512 kts 119°
2026-05-06 15:01 22.25442 -72.02460 39107 ft 512 kts 119°
2026-05-06 15:02 22.21248 -71.96249 39110 ft 512 kts 119°
2026-05-06 15:02 22.17074 -71.90076 39118 ft 512 kts 120°
2026-05-06 15:03 22.12876 -71.83874 39101 ft 511 kts 120°
2026-05-06 15:03 22.08687 -71.77691 39105 ft 511 kts 120°
2026-05-06 15:04 22.04492 -71.71507 39089 ft 510 kts 120°
2026-05-06 15:04 22.00301 -71.65335 39106 ft 510 kts 120°
2026-05-06 15:05 21.96113 -71.59175 39110 ft 510 kts 120°
2026-05-06 15:05 21.91918 -71.53010 39115 ft 509 kts 120°
2026-05-06 15:06 21.87737 -71.46873 39105 ft 507 kts 120°
2026-05-06 15:06 21.83583 -71.40782 39110 ft 508 kts 120°
2026-05-06 15:07 21.79396 -71.34650 39110 ft 508 kts 120°
2026-05-06 15:07 21.75205 -71.28520 39108 ft 508 kts 120°
2026-05-06 15:08 21.71017 -71.22401 39106 ft 508 kts 120°
2026-05-06 15:08 21.66852 -71.16322 39094 ft 507 kts 121°
2026-05-06 15:09 21.62642 -71.10182 39109 ft 507 kts 121°
2026-05-06 15:09 21.58484 -71.04117 39107 ft 506 kts 119°
2026-05-06 15:10 21.54531 -70.97872 39112 ft 505 kts 118°
2026-05-06 15:10 21.50564 -70.91630 39110 ft 505 kts 118°
2026-05-06 15:11 21.46601 -70.85407 39120 ft 504 kts 119°
2026-05-06 15:11 21.42652 -70.79210 39104 ft 502 kts 119°
2026-05-06 15:12 21.38728 -70.73061 39110 ft 502 kts 119°
2026-05-06 15:12 21.34772 -70.66868 39111 ft 502 kts 119°
2026-05-06 15:13 21.30819 -70.60686 39103 ft 502 kts 119°
2026-05-06 15:13 21.27532 -70.55551 39099 ft 502 kts 120°
2026-05-06 15:14 21.23583 -70.49389 39110 ft 500 kts 120°
2026-05-06 15:14 21.19642 -70.43246 39110 ft 499 kts 120°
2026-05-06 15:15 21.15724 -70.37144 39113 ft 499 kts 120°
2026-05-06 15:15 21.11783 -70.31015 39110 ft 500 kts 120°
2026-05-06 15:16 21.07839 -70.24887 39109 ft 499 kts 120°
2026-05-06 15:16 21.03889 -70.18756 39119 ft 499 kts 121°
2026-05-06 15:17 20.99951 -70.12651 39114 ft 497 kts 121°
2026-05-06 15:17 20.96042 -70.06597 39110 ft 497 kts 121°
2026-05-06 15:18 20.92101 -70.00500 39114 ft 497 kts 121°
2026-05-06 15:18 20.88168 -69.94422 39105 ft 497 kts 121°
2026-05-06 15:19 20.84229 -69.88342 39115 ft 497 kts 121°
2026-05-06 15:19 20.80293 -69.82271 39110 ft 495 kts 122°
2026-05-06 15:20 20.76366 -69.76223 39112 ft 494 kts 122°
2026-05-06 15:20 20.72465 -69.70220 39109 ft 495 kts 122°
2026-05-06 15:21 20.68538 -69.64183 39113 ft 495 kts 122°
2026-05-06 15:21 20.64609 -69.58150 39115 ft 495 kts 122°
2026-05-06 15:22 20.60679 -69.52121 39122 ft 494 kts 123°
2026-05-06 15:22 20.56760 -69.46115 39113 ft 491 kts 123°
2026-05-06 15:23 20.52849 -69.40129 39112 ft 491 kts 123°
2026-05-06 15:23 20.48940 -69.34152 39110 ft 492 kts 123°
2026-05-06 15:24 20.45020 -69.28163 39112 ft 492 kts 123°
2026-05-06 15:24 20.41126 -69.22221 39113 ft 492 kts 123°
2026-05-06 15:25 20.37204 -69.16242 39122 ft 490 kts 124°
2026-05-06 15:25 20.33290 -69.10280 39111 ft 489 kts 124°
2026-05-06 15:26 20.29406 -69.04372 39114 ft 489 kts 124°
2026-05-06 15:26 20.25499 -68.98433 39111 ft 489 kts 124°
2026-05-06 15:27 20.21592 -68.92501 39111 ft 489 kts 124°
2026-05-06 15:27 20.17682 -68.86569 39116 ft 489 kts 124°
2026-05-06 15:28 20.13804 -68.80692 39116 ft 486 kts 124°
2026-05-06 15:28 20.09918 -68.74808 39118 ft 486 kts 124°
2026-05-06 15:29 20.06154 -68.68821 39125 ft 486 kts 123°
2026-05-06 15:29 20.02435 -68.62806 39121 ft 486 kts 123°
2026-05-06 15:30 19.98739 -68.56844 39116 ft 486 kts 123°
2026-05-06 15:30 19.95012 -68.50838 39122 ft 485 kts 123°
2026-05-06 15:31 19.91296 -68.44857 39121 ft 484 kts 123°
2026-05-06 15:31 19.87584 -68.38887 39117 ft 484 kts 123°
2026-05-06 15:32 19.82028 -68.29963 39123 ft 484 kts 123°
2026-05-06 15:32 19.78310 -68.24000 39129 ft 484 kts 123°
2026-05-06 15:33 19.74591 -68.18041 39104 ft 484 kts 124°
2026-05-06 15:33 19.70872 -68.12087 39119 ft 483 kts 124°
2026-05-06 15:34 19.67171 -68.06167 39121 ft 483 kts 124°
2026-05-06 15:34 19.63451 -68.00223 39121 ft 483 kts 124°
2026-05-06 15:35 19.59730 -67.94285 39124 ft 483 kts 124°
2026-05-06 15:35 19.55996 -67.88330 39124 ft 483 kts 124°
2026-05-06 15:36 19.52297 -67.82436 39121 ft 483 kts 124°
2026-05-06 15:36 19.48568 -67.76498 39121 ft 483 kts 124°
2026-05-06 15:37 19.44845 -67.70572 39124 ft 483 kts 124°
2026-05-06 15:37 19.41115 -67.64639 39064 ft 484 kts 124°
2026-05-06 15:38 19.39271 -67.61707 38568 ft 481 kts 124°
2026-05-06 15:38 19.37397 -67.58731 37382 ft 491 kts 124°
2026-05-06 15:38 19.35537 -67.55777 36882 ft 483 kts 124°
2026-05-06 15:38 19.33674 -67.52822 36040 ft 483 kts 125°
2026-05-06 15:39 19.31805 -67.49855 35169 ft 485 kts 125°
2026-05-06 15:39 19.29927 -67.46878 34269 ft 487 kts 125°
2026-05-06 15:39 19.28038 -67.43882 33090 ft 493 kts 124°
2026-05-06 15:39 19.26121 -67.40846 32004 ft 497 kts 124°
2026-05-06 15:40 19.24206 -67.37813 31257 ft 493 kts 124°
2026-05-06 15:40 19.22314 -67.34820 30612 ft 486 kts 124°
2026-05-06 15:40 19.20438 -67.31853 29763 ft 487 kts 124°
2026-05-06 15:40 19.18537 -67.28848 28579 ft 494 kts 124°
2026-05-06 15:41 19.16624 -67.25825 27526 ft 496 kts 124°
2026-05-06 15:41 19.14702 -67.22788 26457 ft 496 kts 124°
2026-05-06 15:41 19.12782 -67.19758 25342 ft 496 kts 123°
2026-05-06 15:41 19.10878 -67.16753 24164 ft 498 kts 123°
2026-05-06 15:42 19.08952 -67.13717 23204 ft 493 kts 123°
2026-05-06 15:42 19.07058 -67.10732 22252 ft 485 kts 123°
2026-05-06 15:42 19.05188 -67.07787 21354 ft 478 kts 124°
2026-05-06 15:42 19.03348 -67.04890 20521 ft 471 kts 124°
2026-05-06 15:43 19.01536 -67.02036 19731 ft 464 kts 124°
2026-05-06 15:43 18.99747 -66.99223 18943 ft 457 kts 124°
2026-05-06 15:43 18.97979 -66.96441 18104 ft 453 kts 124°
2026-05-06 15:43 18.96256 -66.93732 17274 ft 447 kts 124°
2026-05-06 15:44 18.94534 -66.91025 16489 ft 440 kts 124°
2026-05-06 15:44 18.92845 -66.88374 15633 ft 431 kts 124°
2026-05-06 15:44 18.91183 -66.85765 14769 ft 424 kts 124°
2026-05-06 15:44 18.89552 -66.83205 13993 ft 415 kts 124°
2026-05-06 15:45 18.87989 -66.80752 13914 ft 388 kts 124°
2026-05-06 15:45 18.86537 -66.78476 13815 ft 366 kts 124°
2026-05-06 15:45 18.85149 -66.76300 13506 ft 351 kts 124°
2026-05-06 15:45 18.83799 -66.74185 13094 ft 341 kts 124°
2026-05-06 15:46 18.82493 -66.72140 12707 ft 332 kts 124°
2026-05-06 15:46 18.81222 -66.70148 12362 ft 322 kts 124°
2026-05-06 15:46 18.79988 -66.68216 12033 ft 312 kts 125°
2026-05-06 15:46 18.78789 -66.66340 11721 ft 304 kts 124°
2026-05-06 15:47 18.77623 -66.64516 11407 ft 296 kts 124°
2026-05-06 15:47 18.76490 -66.62744 11098 ft 288 kts 125°
2026-05-06 15:47 18.75280 -66.61062 10841 ft 290 kts 131°
2026-05-06 15:47 18.73993 -66.59438 10580 ft 293 kts 130°
2026-05-06 15:48 18.72692 -66.57778 10345 ft 294 kts 130°
2026-05-06 15:48 18.71395 -66.56112 10099 ft 293 kts 130°
2026-05-06 15:48 18.70106 -66.54448 9818 ft 292 kts 130°
2026-05-06 15:48 18.68825 -66.52792 9541 ft 290 kts 130°
2026-05-06 15:49 18.67553 -66.51147 9296 ft 289 kts 130°
2026-05-06 15:49 18.66287 -66.49510 9053 ft 287 kts 130°
2026-05-06 15:49 18.65044 -66.47903 8812 ft 285 kts 130°
2026-05-06 15:49 18.63793 -66.46284 8565 ft 284 kts 129°
2026-05-06 15:50 18.62549 -66.44676 8328 ft 282 kts 129°
2026-05-06 15:50 18.61308 -66.43074 8088 ft 280 kts 129°
2026-05-06 15:50 18.60078 -66.41484 7851 ft 279 kts 129°
2026-05-06 15:50 18.58849 -66.39897 7614 ft 277 kts 129°
2026-05-06 15:51 18.57634 -66.38328 7377 ft 274 kts 129°
2026-05-06 15:51 18.56447 -66.36795 7147 ft 270 kts 129°
2026-05-06 15:51 18.55263 -66.35268 6919 ft 267 kts 129°
2026-05-06 15:51 18.54095 -66.33760 6702 ft 264 kts 129°
2026-05-06 15:52 18.52939 -66.32270 6474 ft 260 kts 129°
2026-05-06 15:52 18.51801 -66.30804 6224 ft 256 kts 129°
2026-05-06 15:52 18.50680 -66.29361 6045 ft 250 kts 130°
2026-05-06 15:52 18.49415 -66.28172 5803 ft 246 kts 143°
2026-05-06 15:53 18.48037 -66.27101 5496 ft 246 kts 143°
2026-05-06 15:53 18.46662 -66.26025 5210 ft 245 kts 142°
2026-05-06 15:53 18.45298 -66.24952 4906 ft 244 kts 143°
2026-05-06 15:53 18.43937 -66.23879 4612 ft 244 kts 143°
2026-05-06 15:54 18.42575 -66.22805 4311 ft 244 kts 142°
2026-05-06 15:54 18.41220 -66.21735 4067 ft 243 kts 142°
2026-05-06 15:54 18.39907 -66.20699 3956 ft 234 kts 141°
2026-05-06 15:54 18.38649 -66.19697 3998 ft 218 kts 139°
2026-05-06 15:55 18.37819 -66.18449 3989 ft 204 kts 107°
2026-05-06 15:55 18.37758 -66.17008 3953 ft 195 kts 79°
2026-05-06 15:55 18.38191 -66.15697 3940 ft 182 kts 71°
2026-05-06 15:55 18.38658 -66.14474 3728 ft 178 kts 70°
2026-05-06 15:56 18.39122 -66.13287 3451 ft 173 kts 72°
2026-05-06 15:56 18.39580 -66.12125 3147 ft 171 kts 70°
2026-05-06 15:56 18.40026 -66.11005 2822 ft 163 kts 69°
2026-05-06 15:56 18.40455 -66.09934 2489 ft 157 kts 70°
2026-05-06 15:57 18.40857 -66.08924 2248 ft 142 kts 69°
2026-05-06 15:57 18.41222 -66.07993 2043 ft 136 kts 69°
2026-05-06 15:57 18.41717 -66.07093 1777 ft 148 kts 57°
2026-05-06 15:57 18.42166 -66.06123 1431 ft 147 kts 76°
2026-05-06 15:58 18.42460 -66.05111 1111 ft 143 kts 74°
2026-05-06 15:58 18.42799 -66.04149 753 ft 137 kts 69°
2026-05-06 15:58 18.43157 -66.03242 440 ft 130 kts 66°
2026-05-06 15:58 18.43508 -66.02397 205 ft 123 kts 66°
2026-05-06 15:59 18.43858 -66.01528 43 ft 126 kts 65°
2026-05-06 15:59 18.44156 -66.00798 22 ft 79 kts 67°
2026-05-06 15:59 18.44311 -66.00414 22 ft 62 kts 66°
2026-05-06 15:59 18.44433 -66.00116 20 ft 28 kts 66°
2026-05-06 16:00 18.44439 -65.99997 23 ft 10 kts 112°
2026-05-06 16:00 18.44409 -65.99957 20 ft 6 kts 162°
2026-05-06 16:00 18.44371 -65.99982 20 ft 8 kts 240°
2026-05-06 16:00 18.44342 -66.00047 20 ft 11 kts 246°
2026-05-06 16:01 18.44307 -66.00132 22 ft 14 kts 246°
2026-05-06 16:01 18.44263 -66.00236 22 ft 17 kts 246°
2026-05-06 16:01 18.44214 -66.00359 20 ft 20 kts 248°
2026-05-06 16:01 18.44162 -66.00470 22 ft 12 kts 232°
2026-05-06 16:02 18.44105 -66.00551 20 ft 15 kts 237°
2026-05-06 16:02 18.44059 -66.00662 21 ft 18 kts 246°
2026-05-06 16:02 18.44019 -66.00760 21 ft 11 kts 246°
2026-05-06 16:02 18.43992 -66.00824 21 ft 9 kts 245°
2026-05-06 16:03 18.43965 -66.00855 20 ft 7 kts 213°
2026-05-06 16:03 18.43935 -66.00872 20 ft 8 kts 208°
2026-05-06 16:03 18.43889 -66.00875 20 ft 5 kts 139°
2026-05-06 16:03 18.43886 -66.00858 21 ft 0 kts 66°